When you browse on this site, cookies collect data to enhance your experience and personalize the content and advertising you see.
Visit our Privacy Policy to learn more. By continuing to use the site, you agree to this use of cookies and data.
  • En España
  • Lista de países
  • Para 7 días
  • Temperatura del agua
  • El tiempo en el mapa
  • Informadores
  • user-avatar
    Iniciar sesión

    Tiempo cada hora Kipungo

    Hoy, 17 Octubre, Jueves

    Tiempo Temperatura Precipitaciones Viento Presión Humedad
    00:00 +24°C° 0 mm 1 mps 653 mmHg 62%
    01:00 +21°C° 0 mm 2 mps 653 mmHg 67%
    02:00 +22°C° 0 mm 1 mps 653 mmHg 69%
    03:00 +21°C° 0 mm 1 mps 652 mmHg 71%
    04:00 +19°C° 0 mm 0 mps 652 mmHg 73%
    05:00 +20°C° 0 mm 0 mps 653 mmHg 68%
    06:00 +21°C° 0 mm 0 mps 654 mmHg 63%
    07:00 +23°C° 0 mm 0 mps 655 mmHg 56%
    08:00 +27°C° 0 mm 1 mps 655 mmHg 46%
    09:00 +30°C° 0 mm 2 mps 655 mmHg 37%
    10:00 +33°C° 0 mm 3 mps 656 mmHg 27%
    11:00 +35°C° 0 mm 3 mps 655 mmHg 24%
    12:00 +36°C° 0 mm 3 mps 655 mmHg 20%
    13:00 +37°C° 0 mm 3 mps 655 mmHg 17%
    14:00 +36°C° 0 mm 3 mps 654 mmHg 17%
    15:00 +36°C° 0 mm 2 mps 654 mmHg 17%
    16:00 +36°C° 0 mm 2 mps 653 mmHg 18%
    17:00 +33°C° 0 mm 1 mps 653 mmHg 21%
    18:00 +31°C° 0 mm 1 mps 654 mmHg 24%
    19:00 +29°C° 0 mm 1 mps 654 mmHg 27%
    20:00 +28°C° 0 mm 2 mps 654 mmHg 39%
    21:00 +26°C° 0 mm 2 mps 654 mmHg 51%
    22:00 +25°C° 0 mm 3 mps 654 mmHg 63%
    23:00 +24°C° 0 mm 3 mps 654 mmHg 68%

    Mañana, 18 Octubre, Viernes

    Tiempo Temperatura Precipitaciones Viento Presión Humedad
    00:00 +22°C° 0 mm 3 mps 654 mmHg 72%
    01:00 +21°C° 0 mm 2 mps 653 mmHg 77%
    02:00 +21°C° 0 mm 2 mps 653 mmHg 79%
    03:00 +21°C° 0 mm 1 mps 653 mmHg 82%
    04:00 +21°C° 0 mm 1 mps 652 mmHg 85%
    05:00 +22°C° 0 mm 1 mps 653 mmHg 79%
    06:00 +23°C° 0 mm 1 mps 653 mmHg 73%
    07:00 +24°C° 0 mm 1 mps 654 mmHg 67%
    08:00 +27°C° 0 mm 1 mps 655 mmHg 53%
    09:00 +31°C° 0 mm 1 mps 655 mmHg 38%
    10:00 +35°C° 0 mm 1 mps 656 mmHg 24%
    11:00 +36°C° 0 mm 1 mps 656 mmHg 20%
    12:00 +38°C° 0 mm 2 mps 655 mmHg 17%
    13:00 +38°C° 0 mm 2 mps 655 mmHg 13%
    14:00 +38°C° 0 mm 2 mps 654 mmHg 14%
    15:00 +37°C° 0 mm 2 mps 653 mmHg 14%
    16:00 +37°C° 0 mm 2 mps 653 mmHg 14%
    17:00 +35°C° 0 mm 2 mps 653 mmHg 18%
    18:00 +32°C° 0 mm 2 mps 653 mmHg 23%
    19:00 +30°C° 0 mm 2 mps 653 mmHg 27%
    20:00 +28°C° 0 mm 2 mps 653 mmHg 35%
    21:00 +27°C° 0 mm 2 mps 653 mmHg 43%
    22:00 +25°C° 0 mm 2 mps 654 mmHg 51%
    23:00 +25°C° 0 mm 2 mps 653 mmHg 54%

    Pasado mañana, 19 Octubre, Sábado

    Tiempo Temperatura Precipitaciones Viento Presión Humedad
    00:00 +24°C° 0 mm 2 mps 653 mmHg 57%
    01:00 +23°C° 0 mm 2 mps 653 mmHg 60%
    02:00 +21°C° 0 mm 2 mps 652 mmHg 63%
    03:00 +21°C° 0 mm 1 mps 652 mmHg 66%
    04:00 +21°C° 0 mm 1 mps 651 mmHg 68%
    05:00 +22°C° 0 mm 1 mps 652 mmHg 64%
    06:00 +23°C° 0 mm 1 mps 653 mmHg 60%
    07:00 +23°C° 0 mm 1 mps 653 mmHg 56%
    08:00 +27°C° 0 mm 1 mps 654 mmHg 44%
    09:00 +31°C° 0 mm 1 mps 655 mmHg 33%
    10:00 +34°C° 0 mm 1 mps 656 mmHg 21%
    11:00 +36°C° 0 mm 2 mps 655 mmHg 18%
    12:00 +37°C° 0 mm 2 mps 655 mmHg 14%
    13:00 +38°C° 0 mm 3 mps 654 mmHg 11%
    14:00 +38°C° 0 mm 3 mps 653 mmHg 11%
    15:00 +38°C° 0 mm 3 mps 653 mmHg 11%
    16:00 +37°C° 0 mm 3 mps 652 mmHg 11%
    17:00 +35°C° 0 mm 3 mps 652 mmHg 13%
    18:00 +32°C° 0 mm 2 mps 652 mmHg 15%
    19:00 +30°C° 0 mm 1 mps 653 mmHg 18%
    20:00 +28°C° 0 mm 1 mps 653 mmHg 28%
    21:00 +26°C° 0 mm 2 mps 653 mmHg 37%
    22:00 +25°C° 0 mm 2 mps 653 mmHg 47%
    23:00 +24°C° 0 mm 2 mps 653 mmHg 53%

    20 Octubre, Domingo

    Tiempo Temperatura Precipitaciones Viento Presión Humedad
    00:00 +23°C° 0 mm 2 mps 652 mmHg 58%
    01:00 +21°C° 0 mm 2 mps 652 mmHg 64%
    02:00 +20°C° 0 mm 2 mps 652 mmHg 68%
    03:00 +19°C° 0 mm 2 mps 652 mmHg 72%
    04:00 +20°C° 0 mm 1 mps 652 mmHg 76%
    05:00 +21°C° 0 mm 1 mps 652 mmHg 70%
    06:00 +22°C° 0 mm 1 mps 653 mmHg 64%
    07:00 +23°C° 0 mm 1 mps 654 mmHg 57%
    08:00 +28°C° 0 mm 1 mps 655 mmHg 44%
    09:00 +32°C° 0 mm 1 mps 656 mmHg 31%
    10:00 +34°C° 0 mm 0 mps 657 mmHg 17%
    11:00 +37°C° 0 mm 1 mps 656 mmHg 15%
    12:00 +39°C° 0 mm 2 mps 655 mmHg 12%
    13:00 +39°C° 0 mm 3 mps 654 mmHg 9%
    14:00 +39°C° 0 mm 3 mps 654 mmHg 9%
    15:00 +38°C° 0 mm 3 mps 653 mmHg 10%
    16:00 +38°C° 0 mm 3 mps 653 mmHg 10%
    17:00 +36°C° 0 mm 3 mps 653 mmHg 13%
    18:00 +32°C° 0 mm 2 mps 653 mmHg 16%
    19:00 +30°C° 0 mm 1 mps 653 mmHg 20%
    20:00 +28°C° 0 mm 2 mps 653 mmHg 30%
    21:00 +27°C° 0 mm 2 mps 653 mmHg 39%
    22:00 +25°C° 0 mm 2 mps 653 mmHg 49%
    23:00 +24°C° 0 mm 2 mps 653 mmHg 55%

    21 Octubre, Lunes

    Tiempo Temperatura Precipitaciones Viento Presión Humedad
    00:00 +23°C° 0 mm 2 mps 653 mmHg 60%
    01:00 +21°C° 0 mm 2 mps 652 mmHg 65%
    02:00 +21°C° 0 mm 2 mps 652 mmHg 68%
    03:00 +20°C° 0 mm 2 mps 652 mmHg 71%
    04:00 +20°C° 0 mm 1 mps 652 mmHg 75%
    05:00 +21°C° 0 mm 1 mps 653 mmHg 69%
    06:00 +21°C° 0 mm 2 mps 653 mmHg 63%
    07:00 +24°C° 0 mm 2 mps 654 mmHg 58%
    08:00 +28°C° 0 mm 1 mps 655 mmHg 44%
    09:00 +32°C° 0 mm 1 mps 655 mmHg 30%
    10:00 +35°C° 0 mm 0 mps 656 mmHg 17%
    11:00 +37°C° 0 mm 0 mps 656 mmHg 14%
    12:00 +38°C° 0 mm 0 mps 656 mmHg 11%
    13:00 +40°C° 0 mm 0 mps 655 mmHg 8%
    14:00 +42°C° 0 mm 1 mps 654 mmHg 8%
    15:00 +40°C° 0 mm 2 mps 653 mmHg 8%
    16:00 +39°C° 0 mm 2 mps 652 mmHg 8%
    17:00 +36°C° 0 mm 3 mps 652 mmHg 16%
    18:00 +33°C° 0 mm 3 mps 652 mmHg 23%
    19:00 +29°C° 0 mm 3 mps 652 mmHg 31%
    20:00 +28°C° 0 mm 3 mps 653 mmHg 39%
    21:00 +26°C° 0 mm 3 mps 653 mmHg 47%
    22:00 +25°C° 0 mm 3 mps 653 mmHg 55%
    23:00 +24°C° 0 mm 3 mps 653 mmHg 59%

    22 Octubre, Martes

    Tiempo Temperatura Precipitaciones Viento Presión Humedad
    00:00 +22°C° 0 mm 3 mps 653 mmHg 62%
    01:00 +21°C° 0 mm 2 mps 652 mmHg 65%
    02:00 +20°C° 0 mm 2 mps 652 mmHg 66%
    03:00 +20°C° 0 mm 2 mps 652 mmHg 67%
    04:00 +19°C° 0 mm 2 mps 652 mmHg 68%
    05:00 +20°C° 0 mm 2 mps 652 mmHg 62%
    06:00 +21°C° 0 mm 2 mps 653 mmHg 57%
    07:00 +23°C° 0 mm 2 mps 653 mmHg 51%
    08:00 +27°C° 0 mm 2 mps 654 mmHg 39%
    09:00 +30°C° 0 mm 2 mps 655 mmHg 27%
    10:00 +35°C° 0 mm 2 mps 655 mmHg 15%
    11:00 +37°C° 0 mm 2 mps 655 mmHg 13%
    12:00 +38°C° 0 mm 2 mps 655 mmHg 11%
    13:00 +40°C° 0 mm 2 mps 654 mmHg 10%
    14:00 +39°C° 0 mm 2 mps 654 mmHg 10%
    15:00 +39°C° 0 mm 2 mps 653 mmHg 10%
    16:00 +38°C° 0 mm 3 mps 652 mmHg 10%
    17:00 +35°C° 0 mm 3 mps 652 mmHg 16%
    18:00 +32°C° 0 mm 4 mps 652 mmHg 23%
    19:00 +28°C° 0 mm 4 mps 652 mmHg 29%
    20:00 +27°C° 0 mm 3 mps 652 mmHg 36%
    21:00 +25°C° 0 mm 3 mps 652 mmHg 44%
    22:00 +23°C° 0 mm 2 mps 652 mmHg 51%
    23:00 +21°C° 0 mm 2 mps 652 mmHg 54%
    Mostrar más